This is the latest recevied weather packets stored in our database for station/object N5ATR. If no packets are shown the sender has not sent any weather packets the latest 10 day(s).
| Time | Temp. | Humidity | Pressure | Rain* | Wind** | Luminosity | Snow |
|---|---|---|---|---|---|---|---|
| 1778086105 | 11.11° C | 50% | 1014 hPa | 0 mm | - | 671 W/m² | - |
| 1778085802 | 10.56° C | 52% | 1013.8 hPa | 0 mm | - | 659 W/m² | - |
| 1778085499 | 10° C | 54% | 1014 hPa | 0 mm | - | 648 W/m² | - |
| 1778085194 | 10° C | 55% | 1014 hPa | 0 mm | - | 637 W/m² | - |
| 1778084890 | 9.44° C | 56% | 1013.8 hPa | 0 mm | - | 626 W/m² | - |
| 1778084588 | 10° C | 55% | 1013.9 hPa | 0 mm | - | 613 W/m² | - |
| 1778084285 | 10° C | 55% | 1013.9 hPa | 0 mm | - | 601 W/m² | - |
| 1778083982 | 9.44° C | 55% | 1013.9 hPa | 0 mm | - | 587 W/m² | - |
| 1778083680 | 9.44° C | 56% | 1013.8 hPa | 0 mm | - | 579 W/m² | - |
| 1778083376 | 8.89° C | 58% | 1014.1 hPa | 0 mm | - | 579 W/m² | - |
| 1778083075 | 8.89° C | 59% | 1013.9 hPa | 0 mm | - | 583 W/m² | - |
| 1778082771 | 7.78° C | 63% | 1014 hPa | 0 mm | - | 326 W/m² | - |
| 1778081638 | 7.78° C | 62% | 1013.8 hPa | 0 mm | - | 513 W/m² | - |
| 1778081335 | 7.78° C | 62% | 1013.8 hPa | 0 mm | - | 474 W/m² | - |
| 1778081032 | 7.78° C | 64% | 1013.9 hPa | 0 mm | - | 445 W/m² | - |
| 1778080731 | 7.78° C | 63% | 1013.8 hPa | 0 mm | - | 424 W/m² | - |
| 1778080427 | 7.22° C | 65% | 1013.9 hPa | 0 mm | - | 409 W/m² | - |
| 1778080125 | 7.22° C | 66% | 1013.9 hPa | 0 mm | - | 393 W/m² | - |
| 1778079821 | 7.22° C | 65% | 1013.9 hPa | 0 mm | - | 377 W/m² | - |
| 1778079518 | 7.22° C | 65% | 1013.7 hPa | 0 mm | - | 360 W/m² | - |
| 1778079214 | 6.67° C | 67% | 1014.1 hPa | 0 mm | - | 343 W/m² | - |
| 1778078912 | 6.67° C | 68% | 1014.3 hPa | 0 mm | - | 328 W/m² | - |
| 1778078608 | 6.67° C | 68% | 1014.1 hPa | 0 mm | - | 312 W/m² | - |
| 1778078307 | 6.67° C | 68% | 1014.1 hPa | 0 mm | - | 295 W/m² | - |
| 1778078004 | 6.67° C | 69% | 1014.1 hPa | 0 mm | - | 279 W/m² | - |
* Rain latest hour (hover to see other rain measurements)
** Current wind speed in m/s (hover to see current wind gust speed)